Location: Sauerland
(51.1981°N, 7.8053°E)
Time: 15:09:29
(UTC+01:00)

ISS - Pass Details

Date: 25 February 2026
Orbit: 416 x 427 km, 51.6° (Epoch: 5 March)

Event Time Altitude Azimuth Distance (km) Brightness Sun altitude
Exits shadow 05:52:04 32° 279° (W) 738 -3.1 -14.9°
Maximum altitude 05:53:29 89° 210° (SSW) 422 -3.8 -14.6°
Drops below altitude 10° 05:56:50 10° 101° (E) 1,492 0.3 -14.1°
Sets 05:58:55 0° 101° (E) 2,353 1.7 -13.8°
